Weather History for KCBM - July, 2013

Change the Weather History Date:

Tuesday, July 23, 2013

  Actual Average Record
Temperature  
Mean Temperature 78 °F -  
Max Temperature 87 °F 89 °F 99 °F (2010)
Min Temperature 69 °F 70 °F 67 °F (2007)
Cooling Degree Days 13    
Growing Degree Days 28 (Base 50)    
Moisture  
Dew Point 72 °F    
Average Humidity 90    
Maximum Humidity 100    
Minimum Humidity 66    
Precipitation  
Precipitation 0.87 in - - ()
Sea Level Pressure  
Sea Level Pressure 29.95 in    
Wind  
Wind Speed 7 mph (WSW)    
Max Wind Speed 24 mph    
Max Gust Speed 29 mph    
Visibility 9 miles    
Events Fog , Rain , Thunderstorm    
Averages and records for this station are not official NWS values.
T = Trace of Precipitation, MM = Missing Value Source: NWS Daily Summary

Daily Weather History Graph

Daily Weather History Graph

Search for Another Location

Airport or City:

Trip Planner

Search our weather history database for the weather conditions in past years. The results will help you decide how hot, cold, wet, or windy it might be!

Date:

Astronomy

Jul. 23, 2013 Rise Set
Actual Time 5:59 AM CDT 8:00 PM CDT
Civil Twilight 5:32 AM CDT 8:28 PM CDT
Nautical Twilight 4:58 AM CDT 9:01 PM CDT
Astronomical Twilight 4:21 AM CDT 9:37 PM CDT
Moon 8:36 PM CDT (7/23) 7:02 AM CDT (7/23)
Length of Visible Light 14h 56m
Length of Day
14h 00m
Full, 99% of the Moon is Illuminated
Jul 23
Full
Jul 29
Last Quarter
Aug 6
New
Aug 14
First Quarter
Aug 20
Full

Hourly Weather History & Observations

Time (CDT) Temp. Heat Index Dew Point Humidity Pressure Visibility Wind Dir Wind Speed Gust Speed Precip Events Conditions
12:52 AM 73.4 °F - 73.4 °F 100% 29.96 in 10.0 mi SSE 3.5 mph - N/A   Partly Cloudy
12:58 AM 73.8 °F - 73.8 °F 100% 29.97 in 10.0 mi SE 4.6 mph - N/A   Partly Cloudy
1:58 AM 73.4 °F - 73.4 °F 100% 29.97 in 10.0 mi ESE 1.2 mph - N/A   Clear
2:58 AM 73.4 °F - 73.4 °F 100% 29.97 in 10.0 mi SSE 4.6 mph - N/A   Clear
3:58 AM 73.8 °F - 73.8 °F 100% 29.96 in 10.0 mi SSE 2.3 mph - N/A   Mostly Cloudy
4:58 AM 73.9 °F - 73.9 °F 100% 29.95 in 10.0 mi South 6.9 mph - N/A   Scattered Clouds
5:58 AM 74.1 °F - 74.1 °F 100% 29.96 in 10.0 mi SW 4.6 mph - N/A   Clear
6:58 AM 74.5 °F - 74.5 °F 100% 29.96 in 10.0 mi East 2.3 mph - N/A   Clear
7:04 AM 75.2 °F - 75.2 °F 100% 29.96 in 10.0 mi East 4.6 mph - N/A   Partly Cloudy
7:19 AM 75.2 °F - 75.2 °F 100% 29.96 in 10.0 mi SE 3.5 mph - N/A   Mostly Cloudy
7:29 AM 77.0 °F - 77.0 °F 100% 29.96 in 10.0 mi SSE 3.5 mph - N/A   Scattered Clouds
7:58 AM 78.8 °F - 75.4 °F 89% 29.98 in 10.0 mi SSW 6.9 mph - N/A   Partly Cloudy
8:58 AM 83.3 °F 91.8 °F 76.1 °F 79% 29.99 in 10.0 mi WSW 8.1 mph - N/A   Scattered Clouds
9:58 AM 85.3 °F 94.6 °F 75.7 °F 73% 29.96 in 10.0 mi SSW 8.1 mph - N/A   Scattered Clouds
10:58 AM 85.8 °F 95.5 °F 75.9 °F 72% 29.94 in 10.0 mi WSW 12.7 mph - N/A   Clear
11:18 AM 87.8 °F 97.6 °F 75.2 °F 66% 29.93 in 10.0 mi WSW 11.5 mph - N/A   Mostly Cloudy
11:28 AM 86.0 °F 95.1 °F 75.2 °F 70% 29.94 in 10.0 mi WSW 16.1 mph - N/A   Mostly Cloudy
11:38 AM 84.2 °F 92.3 °F 75.2 °F 74% 29.93 in 10.0 mi West 13.8 mph 17.3 mph N/A Thunderstorm Mostly Cloudy
11:43 AM 84.2 °F 92.3 °F 75.2 °F 74% 29.93 in 10.0 mi West 11.5 mph - N/A Thunderstorm Mostly Cloudy
11:48 AM 84.2 °F 92.3 °F 75.2 °F 74% 29.94 in 10.0 mi West 12.7 mph - N/A Thunderstorm Mostly Cloudy
11:53 AM 82.4 °F 87.2 °F 71.6 °F 70% 29.94 in 10.0 mi NW 18.4 mph 26.5 mph N/A   Mostly Cloudy
11:54 AM 82.4 °F 86.3 °F 69.8 °F 66% 29.94 in 10.0 mi NNW 21.9 mph 26.5 mph N/A   Overcast
11:58 AM 81.0 °F 83.9 °F 68.5 °F 66% 29.96 in 9.0 mi NNW 20.7 mph 26.5 mph N/A   Overcast
12:03 PM 78.8 °F - 68.0 °F 69% 29.95 in 9.0 mi NW 16.1 mph 26.5 mph N/A   Overcast
12:06 PM 77.0 °F - 68.0 °F 74% 29.96 in 10.0 mi NW 20.7 mph - N/A   Light Drizzle
12:11 PM 75.2 °F - 68.0 °F 78% 29.97 in 10.0 mi NW 23.0 mph 28.8 mph N/A Rain Light Rain
12:14 PM 75.2 °F - 69.8 °F 83% 29.97 in 10.0 mi NW 24.2 mph 28.8 mph N/A Rain , Thunderstorm Light Thunderstorms and Rain
12:19 PM 73.4 °F - 69.8 °F 88% 29.97 in 4.0 mi WNW 15.0 mph 28.8 mph N/A Rain , Thunderstorm Heavy Thunderstorms and Rain
12:24 PM 71.6 °F - 69.8 °F 94% 29.97 in 0.8 mi West 12.7 mph - N/A Rain , Thunderstorm Heavy Thunderstorms and Rain
12:29 PM 71.6 °F - 69.8 °F 94% 29.97 in 0.5 mi West 13.8 mph 20.7 mph N/A Fog , Rain , Thunderstorm Heavy Thunderstorms and Rain
12:31 PM 71.6 °F - 69.8 °F 94% 29.97 in 0.5 mi West 13.8 mph 20.7 mph N/A Fog , Rain , Thunderstorm Heavy Rain
12:36 PM 71.6 °F - 69.8 °F 94% 29.98 in 0.5 mi WNW 11.5 mph 20.7 mph N/A Fog , Rain , Thunderstorm Heavy Rain
12:38 PM 71.6 °F - 69.8 °F 94% 29.98 in 1.0 mi West 10.4 mph 20.7 mph N/A Rain , Thunderstorm Heavy Rain
12:43 PM 71.6 °F - 69.8 °F 94% 29.98 in 2.0 mi West 10.4 mph - N/A Rain , Thunderstorm Light Rain
12:48 PM 71.6 °F - 69.8 °F 94% 29.97 in 4.0 mi WNW 9.2 mph - N/A Rain , Thunderstorm Light Rain
12:49 PM 71.6 °F - 69.8 °F 94% 29.97 in 5.0 mi WNW 8.1 mph - N/A Rain , Thunderstorm Light Thunderstorms and Rain
12:58 PM 70.9 °F - 70.3 °F 98% 29.97 in 10.0 mi West 5.8 mph - 0.69 in Rain , Thunderstorm Light Thunderstorms and Rain
1:03 PM 71.6 °F - 69.8 °F 94% 29.96 in 10.0 mi West 4.6 mph - N/A Rain , Thunderstorm Thunderstorms and Rain
1:04 PM 71.6 °F - 69.8 °F 94% 29.96 in 10.0 mi WSW 3.5 mph - N/A Rain , Thunderstorm Rain
1:21 PM 71.6 °F - 71.6 °F 100% 29.96 in 10.0 mi Variable 2.3 mph - N/A Rain , Thunderstorm Light Thunderstorms and Rain
1:36 PM 71.6 °F - 71.6 °F 100% 29.96 in 10.0 mi WSW 5.8 mph - N/A Rain Light Rain
1:43 PM 71.6 °F - 71.6 °F 100% 29.95 in 10.0 mi WSW 3.5 mph - N/A Rain , Thunderstorm Light Thunderstorms and Rain
1:58 PM 70.7 °F - 70.7 °F 100% 29.95 in 7.0 mi SW 6.9 mph - 0.08 in Rain , Thunderstorm Thunderstorms and Rain
2:11 PM 69.8 °F - 69.8 °F 100% 29.93 in 8.0 mi ESE 11.5 mph - N/A Rain Light Rain
2:32 PM 71.6 °F - 69.8 °F 94% 29.91 in 10.0 mi South 11.5 mph - N/A Rain , Thunderstorm Light Thunderstorms and Rain
2:47 PM 71.6 °F - 69.8 °F 94% 29.92 in 10.0 mi South 8.1 mph - N/A Rain , Thunderstorm Light Rain
2:58 PM 71.4 °F - 69.6 °F 94% 29.92 in 10.0 mi Variable 3.5 mph - 0.08 in Rain Light Rain
3:15 PM 71.6 °F - 69.8 °F 94% 29.90 in 10.0 mi Calm Calm - N/A   Clear
3:58 PM 73.9 °F - 69.1 °F 85% 29.90 in 10.0 mi Variable 3.5 mph - 0.02 in   Clear
4:58 PM 75.7 °F - 70.2 °F 83% 29.91 in 10.0 mi Variable 2.3 mph - N/A   Clear
5:58 PM 76.6 °F - 70.9 °F 82% 29.91 in 10.0 mi Variable 4.6 mph - N/A   Partly Cloudy
6:58 PM 76.5 °F - 70.7 °F 82% 29.91 in 10.0 mi South 2.3 mph - N/A   Mostly Cloudy
7:58 PM 74.3 °F - 72.1 °F 93% 29.91 in 10.0 mi NNE 1.2 mph - N/A   Clear
8:58 PM 73.4 °F - 73.4 °F 100% 29.91 in 10.0 mi ESE 4.6 mph - N/A   Scattered Clouds
9:58 PM 73.6 °F - 73.6 °F 100% 29.91 in 10.0 mi ESE 1.2 mph - N/A   Mostly Cloudy
10:58 PM 73.2 °F - 73.2 °F 100% 29.93 in 10.0 mi ESE 1.2 mph - N/A   Scattered Clouds
11:58 PM 72.9 °F - 72.9 °F 100% 29.91 in 10.0 mi ESE 3.5 mph - N/A   Scattered Clouds